TimeEST,TemperatureF,Dew PointF,Humidity,Sea Level PressureIn,VisibilityMPH,Wind Direction,Wind SpeedMPH,Gust SpeedMPH,PrecipitationIn,Events,Conditions,WindDirDegrees,DateUTC
12:15 AM,60.8,50.0,68,29.99,10.0,Calm,Calm,-,N/A,,Clear,0,2012-11-04 04:15:00
12:35 AM,59.0,50.0,72,29.99,10.0,WNW,4.6,-,N/A,,Clear,290,2012-11-04 04:35:00
12:55 AM,51.8,50.0,94,29.99,10.0,Calm,Calm,-,N/A,,Clear,0,2012-11-04 04:55:00
1:15 AM,53.6,50.0,88,29.98,10.0,WSW,3.5,-,N/A,,Clear,250,2012-11-04 05:15:00
1:35 AM,53.6,50.0,88,29.98,10.0,WSW,3.5,-,N/A,,Clear,240,2012-11-04 05:35:00
1:55 AM,53.6,50.0,88,29.98,10.0,SW,4.6,-,N/A,,Clear,230,2012-11-04 05:55:00
1:15 AM,57.2,51.8,82,29.97,10.0,SW,5.8,-,N/A,,Clear,230,2012-11-04 06:15:00
1:55 AM,57.2,51.8,82,29.96,10.0,SW,5.8,-,N/A,,Clear,230,2012-11-04 06:55:00
2:15 AM,59.0,51.8,77,29.95,10.0,WSW,4.6,-,N/A,,Clear,240,2012-11-04 07:15:00
2:35 AM,59.0,51.8,77,29.95,10.0,West,3.5,-,N/A,,Clear,270,2012-11-04 07:35:00
2:55 AM,55.4,51.8,88,29.95,10.0,West,3.5,-,N/A,,Clear,270,2012-11-04 07:55:00
3:15 AM,59.0,51.8,77,29.94,10.0,Calm,Calm,-,N/A,,Clear,0,2012-11-04 08:15:00
3:35 AM,59.0,51.8,77,29.95,10.0,NE,6.9,-,N/A,,Clear,40,2012-11-04 08:35:00
3:55 AM,59.0,51.8,77,29.95,10.0,Calm,Calm,-,N/A,,Clear,0,2012-11-04 08:55:00
4:15 AM,55.4,50.0,82,29.96,10.0,NNE,4.6,-,N/A,,Clear,30,2012-11-04 09:15:00
4:35 AM,55.4,44.6,67,29.96,10.0,NE,10.4,-,N/A,,Clear,50,2012-11-04 09:35:00
4:55 AM,53.6,42.8,67,29.97,10.0,NE,8.1,-,N/A,,Clear,50,2012-11-04 09:55:00
5:15 AM,51.8,41.0,67,29.98,10.0,NE,4.6,-,N/A,,Clear,40,2012-11-04 10:15:00
5:35 AM,50.0,41.0,71,29.98,10.0,East,5.8,-,N/A,,Clear,80,2012-11-04 10:35:00
6:47 AM,50.0,39.2,66,30.00,10.0,ENE,5.8,-,N/A,,Clear,60,2012-11-04 11:47:00
7:47 AM,51.8,37.4,58,30.01,10.0,East,8.1,-,N/A,,Clear,80,2012-11-04 12:47:00
8:47 AM,55.4,37.4,51,30.00,10.0,East,8.1,-,N/A,,Clear,80,2012-11-04 13:47:00
9:47 AM,57.2,37.4,48,30.00,10.0,NE,4.6,-,N/A,,Clear,40,2012-11-04 14:47:00
10:48 AM,60.8,39.2,45,29.99,10.0,Calm,Calm,-,N/A,,Clear,0,2012-11-04 15:48:00
11:48 AM,62.6,42.8,48,29.97,10.0,Calm,Calm,-,N/A,,Clear,0,2012-11-04 16:48:00
12:47 PM,66.2,46.4,49,29.95,10.0,Calm,Calm,-,N/A,,Clear,0,2012-11-04 17:47:00
1:52 PM,69.8,48.2,46,29.93,10.0,SSE,3.5,-,N/A,,Clear,160,2012-11-04 18:52:00
2:47 PM,69.8,48.2,46,29.92,10.0,Calm,Calm,-,N/A,,Scattered Clouds,0,2012-11-04 19:47:00
3:49 PM,66.2,51.8,60,29.93,10.0,NNW,4.6,-,N/A,,Scattered Clouds,330,2012-11-04 20:49:00
4:47 PM,62.6,55.4,77,29.91,10.0,ESE,5.8,-,N/A,,Scattered Clouds,120,2012-11-04 21:47:00
5:47 PM,57.2,53.6,88,29.94,10.0,ENE,4.6,-,N/A,,Scattered Clouds,60,2012-11-04 22:47:00
6:47 PM,55.4,53.6,94,29.96,10.0,ENE,6.9,-,N/A,,Clear,60,2012-11-04 23:47:00
7:47 PM,55.4,50.0,82,29.96,10.0,NE,5.8,-,N/A,,Clear,50,2012-11-05 00:47:00
8:15 PM,53.6,50.0,88,29.96,10.0,NE,4.6,-,N/A,,Scattered Clouds,50,2012-11-05 01:15:00
8:35 PM,53.6,50.0,88,29.96,10.0,NE,5.8,-,N/A,,Mostly Cloudy,50,2012-11-05 01:35:00
8:51 PM,55.4,48.2,77,29.96,10.0,NE,5.8,-,N/A,,Mostly Cloudy,40,2012-11-05 01:51:00
8:55 PM,55.4,48.2,77,29.97,10.0,NE,6.9,-,N/A,,Mostly Cloudy,50,2012-11-05 01:55:00
9:15 PM,55.4,46.4,72,29.97,10.0,NE,6.9,-,0.01,,Mostly Cloudy,40,2012-11-05 02:15:00
9:35 PM,55.4,44.6,67,29.98,10.0,NNE,5.8,-,0.01,,Overcast,20,2012-11-05 02:35:00
9:55 PM,55.4,44.6,67,29.98,10.0,NE,5.8,-,0.01,,Overcast,40,2012-11-05 02:55:00
10:15 PM,55.4,44.6,67,29.98,10.0,NNE,4.6,-,N/A,,Overcast,30,2012-11-05 03:15:00
10:35 PM,55.4,44.6,67,29.98,10.0,NE,5.8,-,N/A,,Mostly Cloudy,50,2012-11-05 03:35:00
10:55 PM,53.6,44.6,72,29.98,10.0,NE,5.8,-,N/A,,Clear,50,2012-11-05 03:55:00